CW6144 Weather Reports


Display with metric or nautical units.
time (UTC)temp
F
wind
direction
speed
MPH
gust
MPH
rain 1hr
in
rain 24hr
in
rain mn
in
humidity
%
barometer
mb
20260507215004 64 263 2.0 8.0 0.00 0.00 0.00 48 1015.9
20260507214506 64 307 3.0 7.0 0.00 0.00 0.00 44 1015.8
20260507214003 64 245 5.0 10.0 0.00 0.00 0.00 47 1015.8
20260507213505 64 242 6.0 11.0 0.00 0.00 0.00 44 1016.0
20260507213011 64 296 6.0 11.0 0.00 0.00 0.00 44 1015.8
20260507212505 64 296 8.0 11.0 0.00 0.00 0.00 44 1015.9
20260507212009 64 240 2.0 9.0 0.00 0.00 0.00 46 1015.9
20260507211514 63 303 2.0 11.0 0.00 0.00 0.00 43 1015.9
20260507211006 64 325 5.0 11.0 0.00 0.00 0.00 45 1016.0
20260507210507 64 246 5.0 11.0 0.00 0.00 0.00 46 1016.0
20260507210019 64 279 4.0 10.0 0.00 0.00 0.00 44 1016.1
20260507205508 64 310 2.0 10.0 0.00 0.00 0.00 46 1016.1
20260507205003 64 243 5.0 10.0 0.00 0.00 0.00 43 1016.1
20260507204505 64 32 2.0 11.0 0.00 0.00 0.00 43 1016.1
20260507204008 64 228 5.0 11.0 0.00 0.00 0.00 44 1016.3
20260507203504 63 292 1.0 15.0 0.00 0.00 0.00 43 1016.2
20260507203010 63 242 5.0 15.0 0.00 0.00 0.00 43 1016.4
20260507202503 63 325 4.0 8.0 0.00 0.00 0.00 45 1016.3
20260507202003 63 340 4.0 8.0 0.00 0.00 0.00 44 1016.5
20260507201511 63 278 2.0 11.0 0.00 0.00 0.00 43 1016.6
20260507201004 63 167 2.0 11.0 0.00 0.00 0.00 43 1016.6
20260507200510 63 286 6.0 11.0 0.00 0.00 0.00 46 1016.8
20260507200017 63 278 7.0 11.0 0.00 0.00 0.00 45 1016.7
20260507195507 63 148 1.0 10.0 0.00 0.00 0.00 49 1016.8
20260507195011 63 249 7.0 10.0 0.00 0.00 0.00 44 1016.9
20260507194527 63 239 6.0 11.0 0.00 0.00 0.00 44 1017.0
20260507194012 63 217 7.0 11.0 0.00 0.00 0.00 44 1017.1
20260507193504 63 259 2.0 10.0 0.00 0.00 0.00 50 1017.0
20260507193003 63 239 3.0 10.0 0.00 0.00 0.00 44 1017.0
20260507192509 62 192 6.0 12.0 0.00 0.00 0.00 45 1017.1
20260507192003 62 265 5.0 12.0 0.00 0.00 0.00 45 1017.0
20260507191515 62 247 7.0 12.0 0.00 0.00 0.00 44 1017.1
20260507191003 62 215 3.0 9.0 0.00 0.00 0.00 50 1017.1
20260507190506 61 314 3.0 12.0 0.00 0.00 0.00 46 1017.0
20260507190016 62 242 3.0 12.0 0.00 0.00 0.00 45 1017.3
20260507185507 62 273 4.0 10.0 0.00 0.00 0.00 47 1017.4
20260507185007 62 304 3.0 10.0 0.00 0.00 0.00 42 1017.4
20260507184523 62 253 4.0 10.0 0.00 0.00 0.00 47 1017.5
20260507184007 61 234 3.0 10.0 0.00 0.00 0.00 45 1017.5
20260507183507 61 192 4.0 12.0 0.00 0.00 0.00 46 1017.5
20260507183022 60 223 5.0 12.0 0.00 0.00 0.00 46 1017.6
20260507182509 60 5 4.0 12.0 0.00 0.00 0.00 44 1017.6
20260507182004 60 284 6.0 12.0 0.00 0.00 0.00 48 1017.8
20260507181510 60 297 6.0 10.0 0.00 0.00 0.00 51 1017.9
20260507181006 60 276 4.0 10.0 0.00 0.00 0.00 45 1017.9
20260507180507 60 280 4.0 12.0 0.00 0.00 0.00 50 1018.0
20260507180017 60 316 4.0 12.0 0.00 0.00 0.00 48 1018.0
20260507175503 60 175 3.0 8.0 0.00 0.00 0.00 48 1018.1
20260507175006 59 344 2.0 7.0 0.00 0.00 0.00 44 1018.2
20260507174528 59 27 1.0 8.0 0.00 0.00 0.00 48 1018.3
20260507174010 59 352 4.0 11.0 0.00 0.00 0.00 43 1018.3
20260507173506 60 267 6.0 11.0 0.00 0.00 0.00 42 1018.5
20260507173046 60 276 5.0 11.0 0.00 0.00 0.00 45 1018.5
20260507172508 60 233 5.0 11.0 0.00 0.00 0.00 46 1018.4
20260507172010 60 224 4.0 11.0 0.00 0.00 0.00 46 1018.5
20260507171528 60 292 3.0 7.0 0.00 0.00 0.00 48 1018.6
20260507171004 60 189 4.0 7.0 0.00 0.00 0.00 52 1018.6
20260507170504 59 74 3.0 0.0 0.00 0.00 0.00 49 1018.7
20260507170036 58 3.0 6.0 0.00 0.00 0.00 48 1018.8
20260507165514 58 209 3.0 8.0 0.00 0.00 0.00 50 1018.9
20260507165007 58 330 4.0 10.0 0.00 0.00 0.00 49 1018.9
20260507164518 58 281 4.0 10.0 0.00 0.00 0.00 46 1019.1
20260507164006 58 232 6.0 10.0 0.00 0.00 0.00 44 1019.1
20260507163507 58 250 1.0 9.0 0.00 0.00 0.00 50 1019.1
20260507163020 58 314 6.0 9.0 0.00 0.00 0.00 47 1019.2
20260507162509 58 328 2.0 7.0 0.00 0.00 0.00 46 1019.3
20260507162010 59 251 2.0 7.0 0.00 0.00 0.00 45 1019.3
20260507161525 58 200 0.0 6.0 0.00 0.00 0.00 51 1019.3
20260507161008 58 223 0.0 6.0 0.00 0.00 0.00 52 1019.4
20260507160507 58 222 2.0 6.0 0.00 0.00 0.00 53 1019.4
20260507160028 58 250 2.0 6.0 0.00 0.00 0.00 54 1019.4
20260507155508 58 196 2.0 6.0 0.00 0.00 0.00 52 1019.4
20260507155009 57 97 2.0 6.0 0.00 0.00 0.00 52 1019.3
20260507154527 57 218 1.0 5.0 0.00 0.00 0.00 54 1019.3
20260507154009 56 70 1.0 7.0 0.00 0.00 0.00 51 1019.4
20260507153505 56 56 1.0 7.0 0.00 0.00 0.00 53 1019.4
20260507153018 56 148 2.0 7.0 0.00 0.00 0.00 57 1019.3
20260507152508 55 73 2.0 6.0 0.00 0.00 0.00 55 1019.3
20260507152013 55 33 3.0 5.0 0.00 0.00 0.00 50 1019.4
20260507151522 55 231 1.0 4.0 0.00 0.00 0.00 52 1019.4
20260507151008 54 67 0.0 6.0 0.00 0.00 0.00 48 1019.5
20260507150513 54 92 3.0 6.0 0.00 0.00 0.00 51 1019.5
20260507150035 54 71 3.0 6.0 0.00 0.00 0.00 49 1019.5
20260507145510 54 35 3.0 7.0 0.00 0.00 0.00 49 1019.5
20260507145018 54 54 4.0 7.0 0.00 0.00 0.00 52 1019.5
20260507144528 54 158 2.0 6.0 0.00 0.00 0.00 51 1019.6
20260507144006 54 98 2.0 5.0 0.00 0.00 0.00 52 1019.5
20260507143512 53 79 1.0 6.0 0.00 0.00 0.00 51 1019.5
20260507143016 53 77 3.0 6.0 0.00 0.00 0.00 51 1019.5
20260507142506 53 108 3.0 6.0 0.00 0.00 0.00 51 1019.5
20260507142013 53 156 1.0 5.0 0.00 0.00 0.00 56 1019.4
20260507141521 53 107 2.0 6.0 0.00 0.00 0.00 52 1019.5
20260507141008 53 86 3.0 6.0 0.00 0.00 0.00 53 1019.6
20260507140509 53 70 2.0 4.0 0.00 0.00 0.00 52 1019.6
20260507140025 52 71 1.0 4.0 0.00 0.00 0.00 54 1019.7
20260507135509 52 117 1.0 4.0 0.00 0.00 0.00 54 1019.6
20260507135009 52 81 1.0 4.0 0.00 0.00 0.00 55 1019.7
20260507134528 52 99 2.0 4.0 0.00 0.00 0.00 57 1019.7
20260507134011 51 55 1.0 3.0 0.00 0.00 0.00 60 1019.7
20260507133509 51 82 1.0 3.0 0.00 0.00 0.00 58 1019.8
20260507133038 51 94 1.0 3.0 0.00 0.00 0.00 59 1019.7
20260507132507 50 90 1.0 3.0 0.00 0.00 0.00 61 1019.7
20260507132009 49 88 1.0 3.0 0.00 0.00 0.00 60 1019.7
20260507131519 49 84 1.0 3.0 0.00 0.00 0.00 63 1019.6
20260507131002 47 71 1.0 2.0 0.00 0.00 0.00 70 1019.5
20260507130503 46 87 1.0 2.0 0.00 0.00 0.00 70 1019.4
20260507130004 45 137 0.0 2.0 0.00 0.00 0.00 75 1019.3
20260507125503 43 182 0.0 2.0 0.00 0.00 0.00 77 1019.2
20260507125002 42 182 0.0 2.0 0.00 0.00 0.00 1019.3
20260507124506 41 182 0.0 2.0 0.00 0.00 0.00 1019.2
20260507124003 40 182 0.0 2.0 0.00 0.00 0.00 89 1019.2
20260507123506 40 231 1.0 3.0 0.00 0.00 0.00 89 1019.2
20260507123014 39 231 2.0 3.0 0.00 0.00 0.00 89 1019.3
20260507122503 39 231 2.0 3.0 0.00 0.00 0.00 89 1019.2
20260507122006 38 231 2.0 2.0 0.00 0.00 0.00 89 1019.2
20260507121517 38 231 2.0 2.0 0.00 0.00 0.00 89 1019.2
20260507121008 37 231 2.0 2.0 0.00 0.00 0.00 89 1019.2
20260507120509 37 231 2.0 2.0 0.00 0.00 0.00 89 1019.2
20260507120021 37 231 2.0 3.0 0.00 0.00 0.00 89 1019.0
20260507115503 37 231 1.0 3.0 0.00 0.00 0.00 88 1018.9
20260507115003 37 231 3.0 3.0 0.00 0.00 0.00 88 1018.7
20260507114505 37 227 2.0 3.0 0.00 0.00 0.00 87 1018.6
20260507114003 37 227 3.0 3.0 0.00 0.00 0.00 87 1018.5
20260507113502 37 227 2.0 2.0 0.00 0.00 0.00 87 1018.5
20260507113012 37 227 1.0 2.0 0.00 0.00 0.00 86 1018.6
20260507112503 37 227 1.0 2.0 0.00 0.00 0.00 87 1018.6
20260507112003 37 227 1.0 3.0 0.00 0.00 0.00 87 1018.7
20260507111514 37 227 2.0 3.0 0.00 0.00 0.00 86 1018.6
20260507111004 37 227 1.0 3.0 0.00 0.00 0.00 86 1018.6
20260507110507 38 227 2.0 4.0 0.00 0.00 0.00 85 1018.4
20260507110022 38 225 2.0 4.0 0.00 0.00 0.00 85 1018.6
20260507105510 38 224 3.0 3.0 0.00 0.00 0.00 84 1018.6
20260507105007 38 227 2.0 2.0 0.00 0.00 0.00 83 1018.6
20260507104523 39 240 2.0 3.0 0.00 0.00 0.00 82 1018.6
20260507104005 39 234 2.0 3.0 0.00 0.00 0.00 82 1018.5
20260507103503 40 228 2.0 2.0 0.00 0.00 0.00 81 1018.5
20260507103007 40 360 0.0 2.0 0.00 0.00 0.00 78 1018.5
20260507102504 40 360 0.0 2.0 0.00 0.00 0.00 77 1018.6
20260507102006 41 360 0.0 1.0 0.00 0.00 0.00 76 1018.7
20260507101512 41 360 0.0 2.0 0.00 0.00 0.00 76 1018.6
20260507101002 42 323 0.0 2.0 0.00 0.00 0.00 75 1018.7
20260507100509 42 323 0.0 3.0 0.00 0.00 0.00 74 1018.6
20260507100021 42 323 1.0 3.0 0.00 0.00 0.00 74 1018.6
20260507095511 43 314 1.0 3.0 0.00 0.00 0.00 72 1018.6
20260507095007 43 313 0.0 3.0 0.00 0.00 0.00 73 1018.5
20260507094523 43 340 0.0 4.0 0.00 0.00 0.00 71 1018.4
20260507094010 43 335 1.0 4.0 0.00 0.00 0.00 70 1018.4
20260507093508 43 328 2.0 4.0 0.00 0.00 0.00 70 1018.5
20260507093026 43 325 2.0 4.0 0.00 0.00 0.00 70 1018.4
20260507092509 43 346 2.0 6.0 0.00 0.00 0.00 71 1018.2
20260507092003 43 348 3.0 6.0 0.00 0.00 0.00 71 1018.2
20260507091513 43 329 2.0 3.0 0.00 0.00 0.00 71 1018.2
20260507091003 43 360 1.0 4.0 0.00 0.00 0.00 72 1018.1
20260507090502 43 346 2.0 4.0 0.00 0.00 0.00 71 1018.2
20260507090017 43 309 2.0 4.0 0.00 0.00 0.00 71 1018.3
20260507085506 43 312 1.0 4.0 0.00 0.00 0.00 72 1018.1
20260507085007 43 350 1.0 4.0 0.00 0.00 0.00 73 1018.0
20260507084520 43 342 1.0 3.0 0.00 0.00 0.00 74 1017.9
20260507084008 43 346 1.0 3.0 0.00 0.00 0.00 73 1017.9
20260507083508 43 5 1.0 4.0 0.00 0.00 0.00 74 1018.0
20260507083024 43 350 1.0 5.0 0.00 0.00 0.00 73 1017.9
20260507082507 43 333 2.0 5.0 0.00 0.00 0.00 74 1018.0
20260507082012 43 347 3.0 5.0 0.00 0.00 0.00 75 1018.0
20260507081536 43 340 1.0 3.0 0.00 0.00 0.00 75 1018.0
20260507081011 43 316 2.0 3.0 0.00 0.00 0.00 75 1018.1
20260507080502 43 331 1.0 5.0 0.00 0.00 0.00 75 1018.0
20260507080013 44 33 2.0 5.0 0.00 0.00 0.00 74 1018.1
20260507075503 44 327 2.0 6.0 0.00 0.00 0.00 74 1018.3
20260507075006 44 331 3.0 6.0 0.00 0.00 0.00 76 1018.4
20260507074519 44 336 2.0 6.0 0.00 0.00 0.00 76 1018.3
20260507074004 44 336 2.0 4.0 0.00 0.00 0.00 76 1018.3
20260507073506 44 329 2.0 8.0 0.00 0.00 0.00 76 1018.3
20260507073020 44 331 3.0 8.0 0.00 0.00 0.00 76 1018.3
20260507072510 44 346 2.0 6.0 0.00 0.00 0.00 77 1018.3
20260507072010 44 324 2.0 4.0 0.00 0.00 0.00 78 1018.4
20260507071525 44 340 2.0 4.0 0.00 0.00 0.00 78 1018.4
20260507071006 44 309 2.0 4.0 0.00 0.00 0.00 79 1018.4
20260507070512 44 309 2.0 4.0 0.00 0.01 0.00 79 1018.4
20260507070040 44 335 1.0 3.0 0.00 0.01 0.00 79 1018.4
20260507065510 44 352 1.0 5.0 0.00 0.01 0.00 79 1018.3
20260507065003 44 334 1.0 6.0 0.00 0.02 0.00 79 1018.3
20260507064517 44 332 3.0 6.0 0.00 0.02 0.00 80 1018.4
20260507064003 44 327 3.0 4.0 0.00 0.02 0.00 81 1018.4
20260507063507 44 313 2.0 4.0 0.00 0.02 0.00 82 1018.4
20260507063021 43 304 2.0 5.0 0.00 0.02 0.00 83 1018.5
20260507062510 43 299 2.0 5.0 0.00 0.02 0.00 84 1018.5
20260507062006 43 294 1.0 3.0 0.00 0.02 0.00 86 1018.3
20260507061527 43 334 1.0 3.0 0.00 0.02 0.00 86 1018.3
20260507061003 43 346 1.0 2.0 0.00 0.02 0.00 87 1018.4
20260507060503 43 337 1.0 2.0 0.00 0.02 0.00 87 1018.5
20260507060013 43 19 1.0 2.0 0.00 0.02 0.00 87 1018.4
20260507055503 44 352 0.0 2.0 0.00 0.02 0.00 87 1018.3
20260507055003 43 330 1.0 3.0 0.00 0.02 0.00 88 1018.4
20260507054514 43 336 1.0 3.0 0.00 0.02 0.00 88 1018.5
20260507054004 43 327 0.0 3.0 0.00 0.02 0.00 89 1018.4
20260507053504 44 17 0.0 2.0 0.00 0.02 0.00 89 1018.3
20260507053018 44 17 0.0 2.0 0.00 0.02 0.00 90 1018.1
20260507052506 44 17 0.0 2.0 0.00 0.02 0.00 90 1018.1
20260507052003 44 21 1.0 2.0 0.00 0.02 0.00 89 1018.1
20260507051503 43 21 1.0 2.0 0.00 0.02 0.00 90 1018.1
20260507051008 43 306 0.0 2.0 0.00 0.02 0.00 90 1018.0
20260507050503 43 306 0.0 2.0 0.00 0.02 0.00 89 1017.9
20260507050029 43 5 0.0 2.0 0.00 0.02 0.00 89 1018.0
20260507045503 43 5 0.0 2.0 0.00 0.02 0.02 89 1017.9
20260507045003 43 5 0.0 2.0 0.00 0.02 0.02 89 1017.9
20260507044511 43 5 0.0 0.0 0.00 0.02 0.02 89 1017.8
20260507044003 43 5 0.0 0.0 0.00 0.02 0.02 89 1017.7
20260507043504 43 5 0.0 2.0 0.00 0.02 0.02 89 1017.7
20260507043017 43 5 0.0 2.0 0.00 0.02 0.02 89 1017.8
20260507042505 43 5 0.0 2.0 0.00 0.02 0.02 89 1017.8
20260507042014 43 5 0.0 2.0 0.00 0.02 0.02 89 1017.6
20260507041522 43 5 0.0 2.0 0.00 0.02 0.02 89 1017.8
20260507041008 44 5 0.0 2.0 0.00 0.02 0.02 89 1017.8
20260507040509 43 5 0.0 2.0 0.00 0.02 0.02 89 1017.7
20260507040023 44 5 0.0 2.0 0.00 0.02 0.02 89 1017.5
20260507035504 44 5 0.0 2.0 0.00 0.02 0.02 88 1017.6
20260507035008 44 5 0.0 2.0 0.00 0.02 0.02 88 1017.5
20260507034510 44 5 0.0 2.0 0.00 0.02 0.02 88 1017.5
20260507034003 44 5 0.0 2.0 0.00 0.02 0.02 88 1017.6
20260507033503 44 5 0.0 0.0 0.00 0.02 0.02 87 1017.6
20260507033013 44 5 0.0 2.0 0.00 0.02 0.02 87 1017.6
20260507032508 45 5 0.0 2.0 0.00 0.02 0.02 87 1017.5
20260507032006 45 5 0.0 2.0 0.00 0.02 0.02 87 1017.4
20260507031521 45 5 0.0 2.0 0.00 0.02 0.02 87 1017.5
20260507031009 45 5 0.0 0.0 0.00 0.02 0.02 87 1017.4
20260507030507 45 5 0.0 0.0 0.00 0.02 0.02 87 1017.4
20260507030022 45 5 0.0 0.0 0.00 0.02 0.02 87 1017.4
20260507025507 46 5 0.0 0.0 0.00 0.02 0.02 86 1017.3
20260507025008 46 5 0.0 2.0 0.00 0.02 0.02 86 1017.3
20260507024508 46 5 0.0 2.0 0.00 0.02 0.02 86 1017.2
20260507024007 46 5 0.0 1.0 0.00 0.02 0.02 86 1017.2
20260507023509 46 5 0.0 2.0 0.00 0.02 0.02 85 1017.1
20260507023026 46 5 0.0 2.0 0.00 0.02 0.02 85 1017.0
20260507022503 46 5 0.0 1.0 0.00 0.02 0.02 85 1017.1
20260507022005 47 5 0.0 1.0 0.00 0.02 0.02 84 1017.2
20260507021514 47 5 0.0 2.0 0.00 0.02 0.02 84 1017.0
20260507021006 47 5 0.0 2.0 0.00 0.02 0.02 84 1017.0
20260507020504 48 5 0.0 2.0 0.00 0.02 0.02 83 1017.0
20260507020022 48 5 0.0 2.0 0.00 0.02 0.02 82 1016.9
20260507015506 49 5 1.0 2.0 0.00 0.02 0.02 81 1017.0
20260507015006 49 5 0.0 2.0 0.00 0.02 0.02 81 1016.9
20260507014527 50 5 0.0 0.0 0.00 0.02 0.02 81 1016.9
20260507014007 50 5 0.0 2.0 0.00 0.02 0.02 81 1016.8
20260507013508 50 5 0.0 2.0 0.00 0.02 0.02 80 1016.8
20260507013033 51 5 0.0 2.0 0.00 0.02 0.02 79 1016.7
20260507012503 51 5 0.0 2.0 0.00 0.02 0.02 79 1016.6
20260507012004 52 5 0.0 2.0 0.00 0.02 0.02 77 1016.6
20260507011523 52 5 0.0 0.0 0.00 0.02 0.02 76 1016.7
20260507011005 52 5 0.0 0.0 0.00 0.02 0.02 76 1016.7
20260507010507 52 5 0.0 1.0 0.00 0.02 0.02 73 1016.7
20260507010014 52 5 0.0 2.0 0.00 0.02 0.02 73 1016.7
20260507005508 52 17 0.0 2.0 0.00 0.02 0.02 73 1016.6
20260507005010 52 17 0.0 1.0 0.00 0.02 0.02 73 1016.5
20260507004520 52 17 1.0 2.0 0.00 0.02 0.02 73 1016.5
20260507004007 53 17 0.0 2.0 0.00 0.02 0.02 71 1016.6
20260507003509 53 17 1.0 2.0 0.00 0.02 0.02 71 1016.5
20260507003026 53 9 2.0 3.0 0.00 0.02 0.02 71 1016.5
20260507002509 53 24 0.0 4.0 0.00 0.02 0.02 70 1016.9
20260507002011 53 32 2.0 4.0 0.00 0.02 0.02 69 1016.4
20260507001511 53 16 1.0 3.0 0.00 0.02 0.02 69 1016.6
20260507001004 53 5 1.0 3.0 0.00 0.02 0.02 70 1016.4
20260507000504 53 345 2.0 5.0 0.00 0.02 0.02 68 1016.8
20260507000012 53 20 2.0 5.0 0.00 0.02 0.02 68 1016.6
20260506235507 53 50 3.0 6.0 0.00 0.02 0.02 67 1016.5
20260506235006 53 28 4.0 8.0 0.00 0.02 0.02 67 1016.5
20260506234516 54 5 4.0 9.0 0.00 0.02 0.02 65 1016.5
20260506234006 54 12 2.0 9.0 0.00 0.02 0.02 66 1016.4
20260506233510 54 19 4.0 10.0 0.00 0.02 0.02 66 1016.2
20260506233024 54 20 2.0 10.0 0.00 0.02 0.02 66 1016.3
20260506232508 54 322 4.0 8.0 0.00 0.02 0.02 67 1016.0
20260506232006 53 17 3.0 8.0 0.00 0.02 0.02 66 1016.1
20260506231525 53 30 3.0 8.0 0.00 0.02 0.02 66 1016.4
20260506231007 53 19 4.0 12.0 0.00 0.02 0.02 66 1016.2
20260506230509 53 9 4.0 12.0 0.00 0.02 0.02 67 1016.0
20260506230014 53 24 4.0 13.0 0.00 0.02 0.02 67 1015.8
20260506225505 53 19 8.0 13.0 0.00 0.02 0.02 67 1015.9
20260506225018 53 44 4.0 11.0 0.00 0.02 0.02 68 1015.6
20260506224517 53 9 7.0 12.0 0.00 0.02 0.02 68 1015.2
20260506224006 53 24 6.0 12.0 0.00 0.02 0.02 68 1015.2
20260506223506 53 16 4.0 13.0 0.00 0.02 0.02 70 1015.3
20260506223020 52 36 6.0 13.0 0.00 0.02 0.02 71 1015.0
20260506222509 52 17 3.0 8.0 0.00 0.02 0.02 72 1015.0
20260506222013 52 20 3.0 8.0 0.00 0.02 0.02 72 1015.0
20260506221525 53 5 3.0 9.0 0.00 0.02 0.02 71 1015.2
20260506221011 53 336 5.0 10.0 0.00 0.02 0.02 69 1015.2
20260506220509 53 344 5.0 11.0 0.00 0.02 0.02 69 1015.1
20260506220028 53 17 6.0 11.0 0.00 0.02 0.02 68 1015.0
20260506215510 53 331 5.0 11.0 0.00 0.02 0.02 68 1015.2